User: anonymous   Login
Location: Unspecified
(0.0000°N, 0.0000°E)
Time: 09:35:05
(UTC+00:00)
Language:

SWISSCUBE - Orbit

View from above orbital plane
View from above orbital plane
View from above satellite
View from above satellite

Ground track
Ground track

The orbit data is extracted from the following two-line orbital elements,

1 35932U 09051B   18055.40081281  .00000133  00000-0  41103-4 0  9990
2 35932  98.5268 203.9619 0007605 188.1153 171.9922 14.56123639447025
Epoch (UTC): 24 February 2018 09:37:10
Eccentricity: 0.0007605
inclination: 98.5268°
perigee height: 700 km
apogee height: 711 km
right ascension of ascending node: 203.9619°
argument of perigee: 188.1153°
revolutions per day: 14.56123639
mean anomaly at epoch: 171.9922°
orbit number at epoch: 44702

The dashed part of the orbit path shows where the satellite is in the earth's shadow,  

DLR